Pittsburgh, PA

5:38 PM EDT on July 28, 2016 (GMT -0400)
Allegheny County

Weather History for KAGC - March, 2013

Change the Weather History Date:

Tuesday, March 5, 2013

  Actual Average Record
Temperature  
Mean Temperature 32 °F -  
Max Temperature 45 °F 40 °F 75 °F (2004)
Min Temperature 19 °F 26 °F 7 °F (2015)
Degree Days  
Heating Degree Days 33    
Moisture  
Dew Point 15 °F    
Average Humidity 52    
Maximum Humidity 81    
Minimum Humidity 27    
Precipitation  
Precipitation 0.00 in - - ()
Sea Level Pressure  
Sea Level Pressure 29.93 in    
Wind  
Wind Speed 4 mph (ENE)    
Max Wind Speed 15 mph    
Max Gust Speed 29 mph    
Visibility 10 miles    
Events      
Averages and records for this station are not official NWS values.
T = Trace of Precipitation, MM = Missing Value Source: NWS Daily Summary

Daily Weather History Graph

Daily Weather History Graph

Search for Another Location

Airport or City:

Trip Planner

Search our weather history database for the weather conditions in past years. The results will help you decide how hot, cold, wet, or windy it might be!

Date:

Astronomy

Mar. 05, 2013 Rise Set
Actual Time 6:46 AM EST 6:15 PM EST
Civil Twilight 6:19 AM EST 6:43 PM EST
Nautical Twilight 5:48 AM EST 7:14 PM EST
Astronomical Twilight 5:16 AM EST 7:46 PM EST
Moon 1:58 AM EST (3/5) 11:52 AM EST (3/5)
Length of Visible Light 12h 23m
Length of Day
11h 29m
Last Quarter, 41% of the Moon is Illuminated
Mar 5
Last Quarter
Mar 11
New
Mar 19
First Quarter
Mar 27
Full
Apr 3
Last Quarter

Hourly Weather History & Observations

Time (EST) Temp. Windchill Dew Point Humidity Pressure Visibility Wind Dir Wind Speed Gust Speed Precip Events Conditions
12:53 AM 27.0 °F 23.0 °F 17.1 °F 66% 30.11 in 10.0 mi NNW 3.5 mph - N/A   Clear
2:53 AM 25.0 °F - 16.0 °F 69% 30.11 in 10.0 mi Calm Calm - N/A   Clear
3:53 AM 24.1 °F - 16.0 °F 71% 30.09 in 10.0 mi Calm Calm - N/A   Clear
4:53 AM 21.9 °F - 16.0 °F 78% 30.09 in 10.0 mi Calm Calm - N/A   Clear
5:53 AM 21.0 °F 14.6 °F 16.0 °F 81% 30.09 in 10.0 mi ENE 4.6 mph - N/A   Clear
6:53 AM 19.9 °F 13.4 °F 15.1 °F 81% 30.09 in 10.0 mi NE 4.6 mph - N/A   Clear
7:53 AM 21.2 °F 16.4 °F 15.8 °F 80% 30.02 in 10.0 mi NE 3.5 mph - N/A   Clear
8:53 AM 25.0 °F 20.7 °F 18.0 °F 75% 30.07 in 10.0 mi NE 3.5 mph - N/A   Clear
9:53 AM 28.0 °F - 16.0 °F 61% 30.06 in 10.0 mi Calm Calm - N/A   Clear
10:53 AM 32.0 °F - 14.0 °F 48% 30.05 in 10.0 mi Calm Calm - N/A   Clear
11:53 AM 35.1 °F 32.2 °F 12.0 °F 39% 30.01 in 10.0 mi ENE 3.5 mph - N/A   Clear
12:53 PM 37.9 °F 33.5 °F 15.1 °F 39% 29.97 in 10.0 mi ENE 5.8 mph - N/A   Clear
1:53 PM 41.0 °F 36.4 °F 14.0 °F 33% 29.92 in 10.0 mi Variable 6.9 mph - N/A   Clear
2:53 PM 42.1 °F 38.4 °F 12.0 °F 29% 29.87 in 10.0 mi ENE 5.8 mph - N/A   Clear
3:53 PM 45.0 °F 40.1 °F 12.9 °F 27% 29.85 in 10.0 mi East 9.2 mph - N/A   Clear
4:53 PM 44.1 °F 39.5 °F 12.9 °F 28% 29.83 in 10.0 mi ENE 8.1 mph - N/A   Mostly Cloudy
5:53 PM 43.0 °F 38.8 °F 12.9 °F 30% 29.80 in 10.0 mi Variable 6.9 mph - N/A   Mostly Cloudy
6:53 PM 39.9 °F 35.8 °F 14.0 °F 35% 29.79 in 10.0 mi Variable 5.8 mph - N/A   Mostly Cloudy
7:53 PM 41.0 °F 35.8 °F 15.1 °F 35% 29.76 in 10.0 mi East 8.1 mph 16.1 mph N/A   Overcast
8:53 PM 39.0 °F 32.3 °F 14.0 °F 36% 29.72 in 10.0 mi East 10.4 mph 20.7 mph N/A   Clear
9:53 PM 39.0 °F 31.8 °F 16.0 °F 39% 29.71 in 10.0 mi East 11.5 mph 20.7 mph N/A   Clear
10:53 PM 37.9 °F 30.0 °F 17.1 °F 43% 29.70 in 10.0 mi East 12.7 mph - N/A   Overcast
11:53 PM 35.1 °F 25.5 °F 26.1 °F 70% 29.70 in 9.0 mi SE 15.0 mph 28.8 mph 0.00 in   Overcast